Year,Month,Day,Hour,Minute,Value (Times are PST for temperature in C)
2013,05,07,00,00,13.10
2013,05,07,00,01,13.10
2013,05,07,00,02,13.10
2013,05,07,00,03,13.00
2013,05,07,00,04,13.00
2013,05,07,00,05,12.90
2013,05,07,00,06,12.90
2013,05,07,00,07,12.90
2013,05,07,00,08,12.90
2013,05,07,00,09,12.90
2013,05,07,00,10,12.80
2013,05,07,00,11,12.80
2013,05,07,00,12,12.80
2013,05,07,00,13,12.80
2013,05,07,00,14,12.80
2013,05,07,00,15,12.80
2013,05,07,00,16,12.80
2013,05,07,00,17,12.80
2013,05,07,00,18,12.80
2013,05,07,00,19,12.70
2013,05,07,00,20,12.70
2013,05,07,00,21,12.70
2013,05,07,00,22,12.70
2013,05,07,00,23,12.70
2013,05,07,00,24,12.60
2013,05,07,00,25,12.60
2013,05,07,00,26,12.60
2013,05,07,00,27,12.60
2013,05,07,00,28,12.50
2013,05,07,00,29,12.50
2013,05,07,00,30,12.50
2013,05,07,00,31,12.40
2013,05,07,00,32,12.40
2013,05,07,00,33,12.40
2013,05,07,00,34,12.30
2013,05,07,00,35,12.30
2013,05,07,00,36,12.30
2013,05,07,00,37,12.30
2013,05,07,00,38,12.20
2013,05,07,00,39,12.20
2013,05,07,00,40,12.20
2013,05,07,00,41,12.20
2013,05,07,00,42,12.20
2013,05,07,00,43,12.10
2013,05,07,00,44,12.10
2013,05,07,00,45,12.10
2013,05,07,00,46,12.10
2013,05,07,00,47,12.10
2013,05,07,00,48,12.00
2013,05,07,00,49,12.00
2013,05,07,00,50,12.00
2013,05,07,00,51,12.00
2013,05,07,00,52,11.90
2013,05,07,00,53,11.90
2013,05,07,00,54,11.90
2013,05,07,00,55,11.80
2013,05,07,00,56,11.80
2013,05,07,00,57,11.80
2013,05,07,00,58,11.80
2013,05,07,00,59,11.80
2013,05,07,01,00,11.80
2013,05,07,01,01,11.70
2013,05,07,01,02,11.70
2013,05,07,01,03,11.70
2013,05,07,01,04,11.70
2013,05,07,01,05,11.70
2013,05,07,01,06,11.70
2013,05,07,01,07,11.60
2013,05,07,01,08,11.60
2013,05,07,01,09,11.60
2013,05,07,01,10,11.60
2013,05,07,01,11,11.50
2013,05,07,01,12,11.50
2013,05,07,01,13,11.50
2013,05,07,01,14,11.40
2013,05,07,01,15,11.40
2013,05,07,01,16,11.40
2013,05,07,01,17,11.40
2013,05,07,01,18,11.40
2013,05,07,01,19,11.40
2013,05,07,01,20,11.40
2013,05,07,01,21,11.40
2013,05,07,01,22,11.30
2013,05,07,01,23,11.30
2013,05,07,01,24,11.30
2013,05,07,01,25,11.30
2013,05,07,01,26,11.30
2013,05,07,01,27,11.30
2013,05,07,01,28,11.30
2013,05,07,01,29,11.20
2013,05,07,01,30,11.20
2013,05,07,01,31,11.20
2013,05,07,01,32,11.20
2013,05,07,01,33,11.20
2013,05,07,01,34,11.10
2013,05,07,01,35,11.10
2013,05,07,01,36,11.10
2013,05,07,01,37,11.10
2013,05,07,01,38,11.10
2013,05,07,01,39,11.00
2013,05,07,01,40,11.00
2013,05,07,01,41,11.00
2013,05,07,01,42,11.00
2013,05,07,01,43,10.90
2013,05,07,01,44,10.90
2013,05,07,01,45,10.90
2013,05,07,01,46,10.90
2013,05,07,01,47,10.90
2013,05,07,01,48,10.80
2013,05,07,01,49,10.80
2013,05,07,01,50,10.80
2013,05,07,01,51,10.80
2013,05,07,01,52,10.80
2013,05,07,01,53,10.80
2013,05,07,01,54,10.80
2013,05,07,01,55,10.80
2013,05,07,01,56,10.70
2013,05,07,01,57,10.70
2013,05,07,01,58,10.70
2013,05,07,01,59,10.70
2013,05,07,02,00,10.70
2013,05,07,02,01,10.70
2013,05,07,02,02,10.60
2013,05,07,02,03,10.60
2013,05,07,02,04,10.60
2013,05,07,02,05,10.60
2013,05,07,02,06,10.60
2013,05,07,02,07,10.50
2013,05,07,02,08,10.50
2013,05,07,02,09,10.50
2013,05,07,02,10,10.50
2013,05,07,02,11,10.40
2013,05,07,02,12,10.40
2013,05,07,02,13,10.40
2013,05,07,02,14,10.40
2013,05,07,02,15,10.40
2013,05,07,02,16,10.40
2013,05,07,02,17,10.30
2013,05,07,02,18,10.30
2013,05,07,02,19,10.30
2013,05,07,02,20,10.30
2013,05,07,02,21,10.30
2013,05,07,02,22,10.30
2013,05,07,02,23,10.30
2013,05,07,02,24,10.30
2013,05,07,02,25,10.30
2013,05,07,02,26,10.20
2013,05,07,02,27,10.20
2013,05,07,02,28,10.20
2013,05,07,02,29,10.20
2013,05,07,02,30,10.20
2013,05,07,02,31,10.10
2013,05,07,02,32,10.10
2013,05,07,02,33,10.10
2013,05,07,02,34,10.10
2013,05,07,02,35,10.10
2013,05,07,02,36,10.00
2013,05,07,02,37,10.00
2013,05,07,02,38,10.00
2013,05,07,02,39,10.00
2013,05,07,02,40,10.00
2013,05,07,02,41,9.90
2013,05,07,02,42,9.90
2013,05,07,02,43,9.90
2013,05,07,02,44,9.90
2013,05,07,02,45,9.90
2013,05,07,02,46,9.90
2013,05,07,02,47,9.90
2013,05,07,02,48,9.80
2013,05,07,02,49,9.80
2013,05,07,02,50,9.80
2013,05,07,02,51,9.80
2013,05,07,02,52,9.80
2013,05,07,02,53,9.80
2013,05,07,02,54,9.70
2013,05,07,02,55,9.70
2013,05,07,02,56,9.70
2013,05,07,02,57,9.70
2013,05,07,02,58,9.70
2013,05,07,02,59,9.70
2013,05,07,03,00,9.70
2013,05,07,03,01,9.70
2013,05,07,03,02,9.60
2013,05,07,03,03,9.60
2013,05,07,03,04,9.60
2013,05,07,03,05,9.60
2013,05,07,03,06,9.60
2013,05,07,03,07,9.60
2013,05,07,03,08,9.60
2013,05,07,03,09,9.50
2013,05,07,03,10,9.50
2013,05,07,03,11,9.50
2013,05,07,03,12,9.50
2013,05,07,03,13,9.40
2013,05,07,03,14,9.40
2013,05,07,03,15,9.40
2013,05,07,03,16,9.40
2013,05,07,03,17,9.40
2013,05,07,03,18,9.40
2013,05,07,03,19,9.40
2013,05,07,03,20,9.40
2013,05,07,03,21,9.30
2013,05,07,03,22,9.30
2013,05,07,03,23,9.30
2013,05,07,03,24,9.30
2013,05,07,03,25,9.30
2013,05,07,03,26,9.30
2013,05,07,03,27,9.30
2013,05,07,03,28,9.30
2013,05,07,03,29,9.20
2013,05,07,03,30,9.20
2013,05,07,03,31,9.20
2013,05,07,03,32,9.20
2013,05,07,03,33,9.20
2013,05,07,03,34,9.20
2013,05,07,03,35,9.20
2013,05,07,03,36,9.10
2013,05,07,03,37,9.10
2013,05,07,03,38,9.10
2013,05,07,03,39,9.10
2013,05,07,03,40,9.00
2013,05,07,03,41,9.00
2013,05,07,03,42,9.00
2013,05,07,03,43,9.00
2013,05,07,03,44,8.90
2013,05,07,03,45,8.90
2013,05,07,03,46,8.90
2013,05,07,03,47,8.90
2013,05,07,03,48,8.90
2013,05,07,03,49,8.90
2013,05,07,03,50,8.80
2013,05,07,03,51,8.80
2013,05,07,03,52,8.80
2013,05,07,03,53,8.80
2013,05,07,03,54,8.80
2013,05,07,03,55,8.80
2013,05,07,03,56,8.80
2013,05,07,03,57,8.80
2013,05,07,03,58,8.80
2013,05,07,03,59,8.70
2013,05,07,04,00,8.70
2013,05,07,04,01,8.70
2013,05,07,04,02,8.70
2013,05,07,04,03,8.70
2013,05,07,04,04,8.70
2013,05,07,04,05,8.70
2013,05,07,04,06,8.70
2013,05,07,04,07,8.70
2013,05,07,04,08,8.60
2013,05,07,04,09,8.60
2013,05,07,04,10,8.60
2013,05,07,04,11,8.60
2013,05,07,04,12,8.60
2013,05,07,04,13,8.50
2013,05,07,04,14,8.50
2013,05,07,04,15,8.50
2013,05,07,04,16,8.50
2013,05,07,04,17,8.40
2013,05,07,04,18,8.40
2013,05,07,04,19,8.40
2013,05,07,04,20,8.40
2013,05,07,04,21,8.40
2013,05,07,04,22,8.40
2013,05,07,04,23,8.40
2013,05,07,04,24,8.40
2013,05,07,04,25,8.30
2013,05,07,04,26,8.30
2013,05,07,04,27,8.30
2013,05,07,04,28,8.30
2013,05,07,04,29,8.30
2013,05,07,04,30,8.30
2013,05,07,04,31,8.30
2013,05,07,04,32,8.30
2013,05,07,04,33,8.30
2013,05,07,04,34,8.30
2013,05,07,04,35,8.20
2013,05,07,04,36,8.20
2013,05,07,04,37,8.20
2013,05,07,04,38,8.20
2013,05,07,04,39,8.20
2013,05,07,04,40,8.20
2013,05,07,04,41,8.20
2013,05,07,04,42,8.20
2013,05,07,04,43,8.20
2013,05,07,04,44,8.20
2013,05,07,04,45,8.10
2013,05,07,04,46,8.10
2013,05,07,04,47,8.10
2013,05,07,04,48,8.10
2013,05,07,04,49,8.10
2013,05,07,04,50,8.10
2013,05,07,04,51,8.00
2013,05,07,04,52,8.00
2013,05,07,04,53,8.00
2013,05,07,04,54,8.00
2013,05,07,04,55,7.90
2013,05,07,04,56,7.90
2013,05,07,04,57,7.90
2013,05,07,04,58,7.90
2013,05,07,04,59,7.90
2013,05,07,05,00,7.90
2013,05,07,05,01,7.90
2013,05,07,05,02,7.90
2013,05,07,05,03,7.80
2013,05,07,05,04,7.80
2013,05,07,05,05,7.80
2013,05,07,05,06,7.80
2013,05,07,05,07,7.80
2013,05,07,05,08,7.80
2013,05,07,05,09,7.80
2013,05,07,05,10,7.70
2013,05,07,05,11,7.70
2013,05,07,05,12,7.70
2013,05,07,05,13,7.70
2013,05,07,05,14,7.70
2013,05,07,05,15,7.70
2013,05,07,05,16,7.60
2013,05,07,05,17,7.60
2013,05,07,05,18,7.60
2013,05,07,05,19,7.60
2013,05,07,05,20,7.60
2013,05,07,05,21,7.60
2013,05,07,05,22,7.60
2013,05,07,05,23,7.60
2013,05,07,05,24,7.50
2013,05,07,05,25,7.50
2013,05,07,05,26,7.50
2013,05,07,05,27,7.50
2013,05,07,05,28,7.50
2013,05,07,05,29,7.50
2013,05,07,05,30,7.40
2013,05,07,05,31,7.40
2013,05,07,05,32,7.40
2013,05,07,05,33,7.40
2013,05,07,05,34,7.40
2013,05,07,05,35,7.40
2013,05,07,05,36,7.40
2013,05,07,05,37,7.40
2013,05,07,05,38,7.40
2013,05,07,05,39,7.30
2013,05,07,05,40,7.30
2013,05,07,05,41,7.30
2013,05,07,05,42,7.30
2013,05,07,05,43,7.30
2013,05,07,05,44,7.30
2013,05,07,05,45,7.30
2013,05,07,05,46,7.30
2013,05,07,05,47,7.30
2013,05,07,05,48,7.30
2013,05,07,05,49,7.30
2013,05,07,05,50,7.30
2013,05,07,05,51,7.30
2013,05,07,05,52,7.30
2013,05,07,05,53,7.20
2013,05,07,05,54,7.20
2013,05,07,05,55,7.20
2013,05,07,05,56,7.20
2013,05,07,05,57,7.20
2013,05,07,05,58,7.20
2013,05,07,05,59,7.20
2013,05,07,06,00,7.20
2013,05,07,06,01,7.20
2013,05,07,06,02,7.20
2013,05,07,06,03,7.10
2013,05,07,06,04,7.10
2013,05,07,06,05,7.10
2013,05,07,06,06,7.10
2013,05,07,06,07,7.10
2013,05,07,06,08,7.10
2013,05,07,06,09,7.10
2013,05,07,06,10,7.10
2013,05,07,06,11,7.10
2013,05,07,06,12,7.10
2013,05,07,06,13,7.00
2013,05,07,06,14,7.00
2013,05,07,06,15,7.00
2013,05,07,06,16,7.00
2013,05,07,06,17,7.00
2013,05,07,06,18,7.00
2013,05,07,06,19,7.00
2013,05,07,06,20,7.00
2013,05,07,06,21,7.00
2013,05,07,06,22,7.00
2013,05,07,06,23,7.00
2013,05,07,06,24,7.00
2013,05,07,06,25,7.00
2013,05,07,06,26,7.00
2013,05,07,06,27,7.00
2013,05,07,06,28,7.00
2013,05,07,06,29,7.00
2013,05,07,06,30,7.00
2013,05,07,06,31,7.00
2013,05,07,06,32,7.00
2013,05,07,06,33,7.00
2013,05,07,06,34,7.00
2013,05,07,06,35,7.00
2013,05,07,06,36,7.00
2013,05,07,06,37,7.00
2013,05,07,06,38,7.00
2013,05,07,06,39,7.00
2013,05,07,06,40,7.00
2013,05,07,06,41,7.00
2013,05,07,06,42,7.00
2013,05,07,06,43,7.00
2013,05,07,06,44,7.00
2013,05,07,06,45,7.00
2013,05,07,06,46,7.00
2013,05,07,06,47,7.00
2013,05,07,06,48,7.00
2013,05,07,06,49,7.00
2013,05,07,06,50,7.00
2013,05,07,06,51,7.00
2013,05,07,06,52,7.00
2013,05,07,06,53,7.00
2013,05,07,06,54,7.00
2013,05,07,06,55,7.00
2013,05,07,06,56,7.00
2013,05,07,06,57,7.00
2013,05,07,06,58,7.00
2013,05,07,06,59,7.00
2013,05,07,07,00,7.00
2013,05,07,07,01,7.00
2013,05,07,07,02,7.00
2013,05,07,07,03,7.00
2013,05,07,07,04,7.00
2013,05,07,07,05,7.00
2013,05,07,07,06,7.00
2013,05,07,07,07,7.10
2013,05,07,07,08,7.10
2013,05,07,07,09,7.10
2013,05,07,07,10,7.10
2013,05,07,07,11,7.20
2013,05,07,07,12,7.20
2013,05,07,07,13,7.20
2013,05,07,07,14,7.30
2013,05,07,07,15,7.30
2013,05,07,07,16,7.40
2013,05,07,07,17,7.50
2013,05,07,07,18,7.50
2013,05,07,07,19,7.60
2013,05,07,07,20,7.70
2013,05,07,07,21,7.80
2013,05,07,07,22,7.90
2013,05,07,07,23,8.00
2013,05,07,07,24,8.10
2013,05,07,07,25,8.20
2013,05,07,07,26,8.30
2013,05,07,07,27,8.40
2013,05,07,07,28,8.50
2013,05,07,07,29,8.60
2013,05,07,07,30,8.80
2013,05,07,07,31,8.90
2013,05,07,07,32,9.00
2013,05,07,07,33,9.10
2013,05,07,07,34,9.20
2013,05,07,07,35,9.30
2013,05,07,07,36,9.40
2013,05,07,07,37,9.50
2013,05,07,07,38,9.60
2013,05,07,07,39,9.70
2013,05,07,07,40,9.80
2013,05,07,07,41,9.90
2013,05,07,07,42,9.90
2013,05,07,07,43,10.00
2013,05,07,07,44,10.10
2013,05,07,07,45,10.20
2013,05,07,07,46,10.20
2013,05,07,07,47,10.30
2013,05,07,07,48,10.30
2013,05,07,07,49,10.40
2013,05,07,07,50,10.50
2013,05,07,07,51,10.50
2013,05,07,07,52,10.60
2013,05,07,07,53,10.60
2013,05,07,07,54,10.70
2013,05,07,07,55,10.70
2013,05,07,07,56,10.80
2013,05,07,07,57,10.80
2013,05,07,07,58,10.90
2013,05,07,07,59,10.90
2013,05,07,08,00,11.00
2013,05,07,08,01,11.10
2013,05,07,08,02,11.10
2013,05,07,08,03,11.20
2013,05,07,08,04,11.30
2013,05,07,08,05,11.40
2013,05,07,08,06,11.50
2013,05,07,08,07,11.60
2013,05,07,08,08,11.60
2013,05,07,08,09,11.70
2013,05,07,08,10,11.80
2013,05,07,08,11,11.80
2013,05,07,08,12,11.90
2013,05,07,08,13,11.90
2013,05,07,08,14,12.00
2013,05,07,08,15,12.00
2013,05,07,08,16,12.00
2013,05,07,08,17,12.10
2013,05,07,08,18,12.10
2013,05,07,08,19,12.20
2013,05,07,08,20,12.20
2013,05,07,08,21,12.20
2013,05,07,08,22,12.30
2013,05,07,08,23,12.30
2013,05,07,08,24,12.30
2013,05,07,08,25,12.40
2013,05,07,08,26,12.40
2013,05,07,08,27,12.50
2013,05,07,08,28,12.60
2013,05,07,08,29,12.60
2013,05,07,08,30,12.70
2013,05,07,08,31,12.80
2013,05,07,08,32,12.80
2013,05,07,08,33,12.90
2013,05,07,08,34,13.00
2013,05,07,08,35,13.10
2013,05,07,08,36,13.10
2013,05,07,08,37,13.20
2013,05,07,08,38,13.30
2013,05,07,08,39,13.30
2013,05,07,08,40,13.40
2013,05,07,08,41,13.50
2013,05,07,08,42,13.50
2013,05,07,08,43,13.60
2013,05,07,08,44,13.70
2013,05,07,08,45,13.70
2013,05,07,08,46,13.70
2013,05,07,08,47,13.70
2013,05,07,08,48,13.70
2013,05,07,08,49,13.70
2013,05,07,08,50,13.70
2013,05,07,08,51,13.70
2013,05,07,08,52,13.70
2013,05,07,08,53,13.70
2013,05,07,08,54,13.70
2013,05,07,08,55,13.80
2013,05,07,08,56,13.80
2013,05,07,08,57,13.90
2013,05,07,08,58,13.90
2013,05,07,08,59,13.90
2013,05,07,09,00,14.00
2013,05,07,09,01,14.00
2013,05,07,09,02,14.10
2013,05,07,09,03,14.10
2013,05,07,09,04,14.20
2013,05,07,09,05,14.20
2013,05,07,09,06,14.20
2013,05,07,09,07,14.20
2013,05,07,09,08,14.30
2013,05,07,09,09,14.30
2013,05,07,09,10,14.30
2013,05,07,09,11,14.30
2013,05,07,09,12,14.30
2013,05,07,09,13,14.40
2013,05,07,09,14,14.40
2013,05,07,09,15,14.40
2013,05,07,09,16,14.40
2013,05,07,09,17,14.50
2013,05,07,09,18,14.50
2013,05,07,09,19,14.60
2013,05,07,09,20,14.60
2013,05,07,09,21,14.70
2013,05,07,09,22,14.70
2013,05,07,09,23,14.80
2013,05,07,09,24,14.80
2013,05,07,09,25,14.90
2013,05,07,09,26,15.00
2013,05,07,09,27,15.10
2013,05,07,09,28,15.20
2013,05,07,09,29,15.30
2013,05,07,09,30,15.30
2013,05,07,09,31,15.50
2013,05,07,09,32,15.50
2013,05,07,09,33,15.60
2013,05,07,09,34,15.70
2013,05,07,09,35,15.70
2013,05,07,09,36,15.80
2013,05,07,09,37,15.80
2013,05,07,09,38,15.90
2013,05,07,09,39,15.90
2013,05,07,09,40,16.00
2013,05,07,09,41,16.00
2013,05,07,09,42,16.10
2013,05,07,09,43,16.10
2013,05,07,09,44,16.20
2013,05,07,09,45,16.20
2013,05,07,09,46,16.30
2013,05,07,09,47,16.30
2013,05,07,09,48,16.30
2013,05,07,09,49,16.40
2013,05,07,09,50,16.40
2013,05,07,09,51,16.50
2013,05,07,09,52,16.50
2013,05,07,09,53,16.50
2013,05,07,09,54,16.50
2013,05,07,09,55,16.40
2013,05,07,09,56,16.50
2013,05,07,09,57,16.50
2013,05,07,09,58,16.60
2013,05,07,09,59,16.60
2013,05,07,10,00,16.60
2013,05,07,10,01,16.70
2013,05,07,10,02,16.70
2013,05,07,10,03,16.70
2013,05,07,10,04,16.70
2013,05,07,10,05,16.80
2013,05,07,10,06,16.80
2013,05,07,10,07,16.80
2013,05,07,10,08,16.80
2013,05,07,10,09,16.80
2013,05,07,10,10,16.80
2013,05,07,10,11,16.80
2013,05,07,10,12,16.90
2013,05,07,10,13,16.90
2013,05,07,10,14,17.00
2013,05,07,10,15,17.10
2013,05,07,10,16,17.10
2013,05,07,10,17,17.10
2013,05,07,10,18,17.20
2013,05,07,10,19,17.20
2013,05,07,10,20,17.30
2013,05,07,10,21,17.30
2013,05,07,10,22,17.40
2013,05,07,10,23,17.50
2013,05,07,10,24,17.60
2013,05,07,10,25,17.70
2013,05,07,10,26,17.70
2013,05,07,10,27,17.70
2013,05,07,10,28,17.70
2013,05,07,10,29,17.70
2013,05,07,10,30,17.80
2013,05,07,10,31,17.80
2013,05,07,10,32,17.80
2013,05,07,10,33,17.90
2013,05,07,10,34,17.90
2013,05,07,10,35,18.00
2013,05,07,10,36,18.00
2013,05,07,10,37,18.10
2013,05,07,10,38,18.20
2013,05,07,10,39,18.20
2013,05,07,10,40,18.30
2013,05,07,10,41,18.30
2013,05,07,10,42,18.30
2013,05,07,10,43,18.30
2013,05,07,10,44,18.40
2013,05,07,10,45,18.40
2013,05,07,10,46,18.40
2013,05,07,10,47,18.40
2013,05,07,10,48,18.50
2013,05,07,10,49,18.60
2013,05,07,10,50,18.60
2013,05,07,10,51,18.70
2013,05,07,10,52,18.80
2013,05,07,10,53,19.00
2013,05,07,10,54,19.00
2013,05,07,10,55,19.10
2013,05,07,10,56,19.10
2013,05,07,10,57,19.10
2013,05,07,10,58,19.10
2013,05,07,10,59,19.10
2013,05,07,11,00,19.10
2013,05,07,11,01,19.10
2013,05,07,11,02,19.10
2013,05,07,11,03,19.10
2013,05,07,11,04,19.00
2013,05,07,11,05,19.00
2013,05,07,11,06,19.00
2013,05,07,11,07,18.90
2013,05,07,11,08,18.90
2013,05,07,11,09,18.90
2013,05,07,11,10,18.80
2013,05,07,11,11,18.80
2013,05,07,11,12,18.90
2013,05,07,11,13,18.90
2013,05,07,11,14,18.90
2013,05,07,11,15,18.90
2013,05,07,11,16,18.80
2013,05,07,11,17,18.80
2013,05,07,11,18,18.80
2013,05,07,11,19,18.80
2013,05,07,11,20,18.80
2013,05,07,11,21,18.80
2013,05,07,11,22,18.70
2013,05,07,11,23,18.70
2013,05,07,11,24,18.70
2013,05,07,11,25,18.70
2013,05,07,11,26,18.70
2013,05,07,11,27,18.70
2013,05,07,11,28,18.70
2013,05,07,11,29,18.80
2013,05,07,11,30,18.90
2013,05,07,11,31,18.90
2013,05,07,11,32,19.00
2013,05,07,11,33,19.10
2013,05,07,11,34,19.10
2013,05,07,11,35,19.00
2013,05,07,11,36,18.90
2013,05,07,11,37,18.80
2013,05,07,11,38,18.80
2013,05,07,11,39,18.80
2013,05,07,11,40,18.80
2013,05,07,11,41,18.80
2013,05,07,11,42,18.80
2013,05,07,11,43,18.90
2013,05,07,11,44,19.00
2013,05,07,11,45,19.00
2013,05,07,11,46,19.10
2013,05,07,11,47,19.10
2013,05,07,11,48,19.10
2013,05,07,11,49,19.10
2013,05,07,11,50,19.10
2013,05,07,11,51,19.10
2013,05,07,11,52,19.10
2013,05,07,11,53,19.20
2013,05,07,11,54,19.20
2013,05,07,11,55,19.30
2013,05,07,11,56,19.30
2013,05,07,11,57,19.30
2013,05,07,11,58,19.30
2013,05,07,11,59,19.30
2013,05,07,12,00,19.30
2013,05,07,12,01,19.40
2013,05,07,12,02,19.40
2013,05,07,12,03,19.40
2013,05,07,12,04,19.30
2013,05,07,12,05,19.30
2013,05,07,12,06,19.30
2013,05,07,12,07,19.40
2013,05,07,12,08,19.40
2013,05,07,12,09,19.40
2013,05,07,12,10,19.40
2013,05,07,12,11,19.50
2013,05,07,12,12,19.50
2013,05,07,12,13,19.50
2013,05,07,12,14,19.40
2013,05,07,12,15,19.50
2013,05,07,12,16,19.60
2013,05,07,12,17,19.60
2013,05,07,12,18,19.70
2013,05,07,12,19,19.80
2013,05,07,12,20,19.80
2013,05,07,12,21,19.80
2013,05,07,12,22,19.90
2013,05,07,12,23,19.90
2013,05,07,12,24,20.00
2013,05,07,12,25,20.00
2013,05,07,12,26,20.00
2013,05,07,12,27,20.00
2013,05,07,12,28,19.90
2013,05,07,12,29,19.90
2013,05,07,12,30,19.90
2013,05,07,12,31,19.90
2013,05,07,12,32,20.00
2013,05,07,12,33,20.00
2013,05,07,12,34,20.00
2013,05,07,12,35,20.10
2013,05,07,12,36,20.10
2013,05,07,12,37,20.20
2013,05,07,12,38,20.20
2013,05,07,12,39,20.30
2013,05,07,12,40,20.30
2013,05,07,12,41,20.40
2013,05,07,12,42,20.40
2013,05,07,12,43,20.40
2013,05,07,12,44,20.50
2013,05,07,12,45,20.50
2013,05,07,12,46,20.60
2013,05,07,12,47,20.60
2013,05,07,12,48,20.60
2013,05,07,12,49,20.70
2013,05,07,12,50,20.60
2013,05,07,12,51,20.60
2013,05,07,12,52,20.50
2013,05,07,12,53,20.50
2013,05,07,12,54,20.60
2013,05,07,12,55,20.60
2013,05,07,12,56,20.60
2013,05,07,12,57,20.60
2013,05,07,12,58,20.60
2013,05,07,12,59,20.60
2013,05,07,13,00,20.60
2013,05,07,13,01,20.70
2013,05,07,13,02,20.70
2013,05,07,13,03,20.80
2013,05,07,13,04,20.90
2013,05,07,13,05,21.00
2013,05,07,13,06,21.10
2013,05,07,13,07,21.20
2013,05,07,13,08,21.20
2013,05,07,13,09,21.20
2013,05,07,13,10,21.20
2013,05,07,13,11,21.20
2013,05,07,13,12,21.20
2013,05,07,13,13,21.30
2013,05,07,13,14,21.30
2013,05,07,13,15,21.30
2013,05,07,13,16,21.30
2013,05,07,13,17,21.30
2013,05,07,13,18,21.30
2013,05,07,13,19,21.30
2013,05,07,13,20,21.40
2013,05,07,13,21,21.50
2013,05,07,13,22,21.50
2013,05,07,13,23,21.60
2013,05,07,13,24,21.50
2013,05,07,13,25,21.50
2013,05,07,13,26,21.50
2013,05,07,13,27,21.40
2013,05,07,13,28,21.40
2013,05,07,13,29,21.40
2013,05,07,13,30,21.40
2013,05,07,13,31,21.40
2013,05,07,13,32,21.40
2013,05,07,13,33,21.40
2013,05,07,13,34,21.40
2013,05,07,13,35,21.30
2013,05,07,13,36,21.20
2013,05,07,13,37,21.20
2013,05,07,13,38,21.20
2013,05,07,13,39,21.30
2013,05,07,13,40,21.30
2013,05,07,13,41,21.30
2013,05,07,13,42,21.30
2013,05,07,13,43,21.30
2013,05,07,13,44,21.30
2013,05,07,13,45,21.30
2013,05,07,13,46,21.30
2013,05,07,13,47,21.40
2013,05,07,13,48,21.40
2013,05,07,13,49,21.40
2013,05,07,13,50,21.50
2013,05,07,13,51,21.50
2013,05,07,13,52,21.40
2013,05,07,13,53,21.40
2013,05,07,13,54,21.30
2013,05,07,13,55,21.30
2013,05,07,13,56,21.30
2013,05,07,13,57,21.30
2013,05,07,13,58,21.30
2013,05,07,13,59,21.40
2013,05,07,14,00,21.40
2013,05,07,14,01,21.40
2013,05,07,14,02,21.50
2013,05,07,14,03,21.60
2013,05,07,14,04,21.70
2013,05,07,14,05,21.80
2013,05,07,14,06,21.90
2013,05,07,14,07,21.90
2013,05,07,14,08,21.90
2013,05,07,14,09,21.90
2013,05,07,14,10,22.00
2013,05,07,14,11,22.10
2013,05,07,14,12,22.10
2013,05,07,14,13,22.10
2013,05,07,14,14,22.20
2013,05,07,14,15,22.20
2013,05,07,14,16,22.20
2013,05,07,14,17,22.20
2013,05,07,14,18,22.20
2013,05,07,14,19,22.20
2013,05,07,14,20,22.20
2013,05,07,14,21,22.20
2013,05,07,14,22,22.20
2013,05,07,14,23,22.10
2013,05,07,14,24,22.10
2013,05,07,14,25,22.10
2013,05,07,14,26,22.10
2013,05,07,14,27,22.20
2013,05,07,14,28,22.20
2013,05,07,14,29,22.20
2013,05,07,14,30,22.20
2013,05,07,14,31,22.20
2013,05,07,14,32,22.20
2013,05,07,14,33,22.30
2013,05,07,14,34,22.30
2013,05,07,14,35,22.30
2013,05,07,14,36,22.30
2013,05,07,14,37,22.30
2013,05,07,14,38,22.30
2013,05,07,14,39,22.30
2013,05,07,14,40,22.30
2013,05,07,14,41,22.30
2013,05,07,14,42,22.30
2013,05,07,14,43,22.30
2013,05,07,14,44,22.40
2013,05,07,14,45,22.50
2013,05,07,14,46,22.50
2013,05,07,14,47,22.60
2013,05,07,14,48,22.60
2013,05,07,14,49,22.50
2013,05,07,14,50,22.60
2013,05,07,14,51,22.60
2013,05,07,14,52,22.60
2013,05,07,14,53,22.60
2013,05,07,14,54,22.70
2013,05,07,14,55,22.70
2013,05,07,14,56,22.80
2013,05,07,14,57,22.80
2013,05,07,14,58,22.80
2013,05,07,14,59,22.80
2013,05,07,15,00,22.80
2013,05,07,15,01,22.80
2013,05,07,15,02,22.90
2013,05,07,15,03,22.90
2013,05,07,15,04,22.80
2013,05,07,15,05,22.80
2013,05,07,15,06,22.80
2013,05,07,15,07,22.80
2013,05,07,15,08,22.70
2013,05,07,15,09,22.70
2013,05,07,15,10,22.70
2013,05,07,15,11,22.70
2013,05,07,15,12,22.70
2013,05,07,15,13,22.80
2013,05,07,15,14,22.80
2013,05,07,15,15,22.80
2013,05,07,15,16,22.80
2013,05,07,15,17,22.90
2013,05,07,15,18,23.00
2013,05,07,15,19,23.00
2013,05,07,15,20,23.00
2013,05,07,15,21,23.00
2013,05,07,15,22,23.00
2013,05,07,15,23,22.90
2013,05,07,15,24,22.90
2013,05,07,15,25,22.90
2013,05,07,15,26,22.90
2013,05,07,15,27,23.00
2013,05,07,15,28,23.00
2013,05,07,15,29,23.00
2013,05,07,15,30,23.00
2013,05,07,15,31,23.00
2013,05,07,15,32,23.00
2013,05,07,15,33,23.00
2013,05,07,15,34,23.10
2013,05,07,15,35,23.10
2013,05,07,15,36,23.10
2013,05,07,15,37,23.10
2013,05,07,15,38,23.10
2013,05,07,15,39,23.10
2013,05,07,15,40,23.10
2013,05,07,15,41,23.20
2013,05,07,15,42,23.30
2013,05,07,15,43,23.30
2013,05,07,15,44,23.40
2013,05,07,15,45,23.30
2013,05,07,15,46,23.20
2013,05,07,15,47,23.20
2013,05,07,15,48,23.20
2013,05,07,15,49,23.20
2013,05,07,15,50,23.20
2013,05,07,15,51,23.20
2013,05,07,15,52,23.20
2013,05,07,15,53,23.10
2013,05,07,15,54,23.10
2013,05,07,15,55,23.00
2013,05,07,15,56,22.90
2013,05,07,15,57,22.90
2013,05,07,15,58,22.90
2013,05,07,15,59,22.90
2013,05,07,16,00,22.90
2013,05,07,16,01,22.80
2013,05,07,16,02,22.80
2013,05,07,16,03,22.80
2013,05,07,16,04,22.90
2013,05,07,16,05,22.90
2013,05,07,16,06,22.90
2013,05,07,16,07,22.90
2013,05,07,16,08,22.90
2013,05,07,16,09,22.90
2013,05,07,16,10,22.90
2013,05,07,16,11,23.00
2013,05,07,16,12,23.00
2013,05,07,16,13,23.10
2013,05,07,16,14,23.00
2013,05,07,16,15,23.00
2013,05,07,16,16,23.00
2013,05,07,16,17,22.90
2013,05,07,16,18,22.90
2013,05,07,16,19,22.90
2013,05,07,16,20,22.90
2013,05,07,16,21,22.90
2013,05,07,16,22,22.90
2013,05,07,16,23,22.90
2013,05,07,16,24,22.90
2013,05,07,16,25,22.90
2013,05,07,16,26,22.90
2013,05,07,16,27,22.90
2013,05,07,16,28,22.90
2013,05,07,16,29,23.00
2013,05,07,16,30,23.00
2013,05,07,16,31,23.10
2013,05,07,16,32,23.10
2013,05,07,16,33,23.10
2013,05,07,16,34,23.10
2013,05,07,16,35,23.10
2013,05,07,16,36,23.00
2013,05,07,16,37,23.00
2013,05,07,16,38,23.00
2013,05,07,16,39,23.00
2013,05,07,16,40,23.10
2013,05,07,16,41,23.10
2013,05,07,16,42,23.20
2013,05,07,16,43,23.10
2013,05,07,16,44,23.10
2013,05,07,16,45,23.10
2013,05,07,16,46,23.00
2013,05,07,16,47,23.00
2013,05,07,16,48,22.90
2013,05,07,16,49,22.90
2013,05,07,16,50,22.90
2013,05,07,16,51,22.90
2013,05,07,16,52,22.90
2013,05,07,16,53,22.80
2013,05,07,16,54,22.80
2013,05,07,16,55,22.70
2013,05,07,16,56,22.70
2013,05,07,16,57,22.70
2013,05,07,16,58,22.80
2013,05,07,16,59,22.80
2013,05,07,17,00,22.80
2013,05,07,17,01,22.80
2013,05,07,17,02,22.70
2013,05,07,17,03,22.60
2013,05,07,17,04,22.60
2013,05,07,17,05,22.50
2013,05,07,17,06,22.50
2013,05,07,17,07,22.50
2013,05,07,17,08,22.40
2013,05,07,17,09,22.40
2013,05,07,17,10,22.40
2013,05,07,17,11,22.50
2013,05,07,17,12,22.50
2013,05,07,17,13,22.40
2013,05,07,17,14,22.30
2013,05,07,17,15,22.30
2013,05,07,17,16,22.30
2013,05,07,17,17,22.30
2013,05,07,17,18,22.30
2013,05,07,17,19,22.30
2013,05,07,17,20,22.30
2013,05,07,17,21,22.30
2013,05,07,17,22,22.30
2013,05,07,17,23,22.30
2013,05,07,17,24,22.30
2013,05,07,17,25,22.30
2013,05,07,17,26,22.30
2013,05,07,17,27,22.30
2013,05,07,17,28,22.30
2013,05,07,17,29,22.30
2013,05,07,17,30,22.40
2013,05,07,17,31,22.30
2013,05,07,17,32,22.30